EW7837 Weather Reports


time (UTC)temp
F
wind
direction
speed
knots
gust
knots
rain 1hr
in
rain 24hr
in
rain mn
in
humidity
%
barometer
mb
20260508211518 73 247 0.9 0.0 0.00 0.00 0.00 70 1011.5
20260508210018 73 211 0.0 0.0 0.00 0.00 0.00 69 1011.6
20260508204517 73 213 0.0 0.0 0.00 0.00 0.00 70 1011.6
20260508203016 73 246 0.0 0.0 0.00 0.00 0.00 69 1011.7
20260508201514 74 245 0.0 0.0 0.00 0.00 0.00 68 1011.7
20260508200016 74 260 0.0 0.0 0.00 0.00 0.00 68 1011.7
20260508194512 74 260 0.0 0.0 0.00 0.00 0.00 69 1011.6
20260508193009 73 237 0.0 0.0 0.00 0.00 0.00 71 1012.1
20260508191507 72 253 0.0 0.0 0.00 0.00 0.00 71 1012.2
20260508190004 72 245 0.0 0.0 0.00 0.00 0.00 72 1012.3
20260508184502 72 250 0.0 0.0 0.00 0.00 0.00 71 1012.6
20260508183100 72 254 0.0 0.0 0.00 0.00 0.00 72 1012.7
20260508181607 71 254 0.0 0.0 0.00 0.00 0.00 72 1012.7
20260508180054 71 257 0.0 0.0 0.00 0.00 0.00 73 1012.7
20260508174553 70 257 0.0 0.0 0.00 0.00 0.00 73 1012.7
20260508173050 69 261 0.0 0.0 0.00 0.00 0.00 76 1012.9
20260508171546 68 269 0.0 0.0 0.00 0.00 0.00 79 1013.0
20260508170041 67 269 0.0 0.0 0.00 0.00 0.00 80 1013.0
20260508164540 66 269 0.0 0.0 0.00 0.00 0.00 81 1013.1
20260508163032 66 269 0.0 0.0 0.00 0.00 0.00 82 1013.1
20260508161526 65 269 0.0 0.0 0.00 0.00 0.00 83 1013.2
20260508160021 65 269 0.0 0.0 0.00 0.00 0.00 84 1013.2
20260508154517 64 269 0.0 0.0 0.00 0.00 0.00 84 1013.2
20260508153014 64 269 0.0 0.0 0.00 0.00 0.00 85 1013.2
20260508151514 64 269 0.0 0.0 0.00 0.00 0.00 85 1013.2
20260508150013 63 269 0.0 0.0 0.00 0.00 0.00 86 1013.2
20260508144512 63 269 0.0 0.0 0.00 0.00 0.00 86 1013.2
20260508143008 63 269 0.0 0.0 0.00 0.00 0.00 86 1013.1
20260508141503 63 269 0.0 0.0 0.00 0.00 0.00 86 1013.1
20260508140034 63 269 0.0 0.0 0.00 0.00 0.00 86 1012.8
20260508134537 63 269 0.0 0.0 0.00 0.00 0.00 86 1012.7
20260508133120 63 269 0.0 0.0 0.00 0.00 0.00 86 1012.7
20260508131558 63 269 0.0 0.0 0.00 0.00 0.00 86 1012.6
20260508130053 63 269 0.0 0.0 0.00 0.00 0.00 86 1012.6
20260508124552 63 269 0.0 0.0 0.00 0.00 0.00 86 1012.4
20260508123101 63 269 0.0 0.0 0.00 0.00 0.00 86 1012.4
20260508121552 63 269 0.0 0.0 0.00 0.00 0.00 86 1012.4
20260508120021 63 269 0.0 0.0 0.00 0.00 0.00 85 1012.3
20260508114520 63 269 0.0 0.0 0.00 0.00 0.00 85 1012.3
20260508113018 63 269 0.0 0.0 0.00 0.00 0.00 85 1012.3
20260508111517 63 269 0.0 0.0 0.00 0.00 0.00 85 1012.3
20260508110032 63 269 0.0 0.0 0.00 0.00 0.00 85 1012.4
20260508104515 63 269 0.0 0.0 0.00 0.00 0.00 84 1012.6
20260508103102 63 269 0.0 0.0 0.00 0.00 0.00 84 1012.7
20260508101616 63 269 0.0 0.0 0.00 0.00 0.00 84 1012.7
20260508100036 63 269 0.0 0.0 0.00 0.00 0.00 84 1012.6
20260508094535 63 269 0.0 0.0 0.00 0.00 0.00 84 1012.6
20260508093037 64 269 0.0 0.0 0.00 0.00 0.00 84 1012.6
20260508091538 64 269 0.0 0.0 0.00 0.00 0.00 84 1012.6
20260508090031 64 269 0.0 0.0 0.00 0.00 0.00 84 1012.7
20260508084532 64 269 0.0 0.0 0.00 0.00 0.00 84 1012.7
20260508083037 64 269 0.0 0.0 0.00 0.00 0.00 84 1012.8
20260508081531 64 269 0.0 0.0 0.00 0.00 0.00 84 1013.2
20260508080028 64 269 0.0 0.0 0.00 0.00 0.00 84 1013.2
20260508074536 64 269 0.0 0.0 0.00 0.00 0.00 84 1013.2
20260508073030 64 269 0.0 0.0 0.00 0.00 0.00 84 1013.2
20260508071526 64 269 0.0 0.0 0.00 0.00 0.00 84 1013.2
20260508070024 64 269 0.0 0.0 0.00 0.00 0.00 84 1013.5
20260508064523 64 269 0.0 0.0 0.00 0.00 0.00 84 1013.4
20260508063023 64 269 0.0 0.0 0.00 0.00 0.00 84 1013.5
20260508061523 64 269 0.0 0.0 0.00 0.00 0.00 84 1013.5
20260508060022 64 269 0.0 0.0 0.00 0.00 0.00 84 1013.5
20260508054519 64 269 0.0 0.0 0.00 0.00 0.00 84 1013.5
20260508053032 64 269 0.0 0.0 0.00 0.00 0.00 84 1013.5
20260508051517 64 269 0.0 0.0 0.00 0.00 0.00 84 1013.5
20260508050018 64 269 0.0 0.0 0.00 0.00 0.00 84 1013.3
20260508044514 64 269 0.0 0.0 0.00 0.00 0.00 84 1013.2
20260508043015 64 269 0.0 0.0 0.00 0.00 0.00 84 1013.1
20260508041519 64 269 0.0 0.0 0.00 0.00 0.00 84 1012.8
20260508040012 64 269 0.0 0.0 0.00 0.00 0.00 84 1012.7
20260508034544 64 269 0.0 0.0 0.00 0.00 0.00 84 1012.7
20260508033041 64 269 0.0 0.0 0.00 0.00 0.00 84 1012.6
20260508031535 64 269 0.0 0.0 0.00 0.00 0.00 84 1012.2
20260508030033 64 269 0.0 0.0 0.00 0.00 0.00 83 1012.0
20260508024527 65 269 0.0 0.0 0.00 0.00 0.00 82 1011.8
20260508023126 65 269 0.0 0.0 0.00 0.00 0.00 80 1011.7
20260508021524 66 269 0.0 0.0 0.00 0.00 0.00 78 1011.5
20260508020030 67 269 0.0 0.0 0.00 0.00 0.00 77 1011.5
20260508014524 69 269 0.0 0.0 0.00 0.00 0.00 75 1011.4
20260508013123 70 269 0.0 0.0 0.00 0.00 0.00 74 1011.4
20260508011551 70 269 0.0 0.0 0.00 0.00 0.00 73 1011.3
20260508010015 70 269 0.0 0.0 0.00 0.00 0.00 72 1011.3
20260508004516 70 269 0.0 0.0 0.00 0.00 0.00 72 1011.5
20260508003113 70 269 0.0 0.0 0.00 0.00 0.00 72 1011.5
20260508001521 70 269 0.0 0.0 0.00 0.00 0.00 72 1011.1
20260508000019 71 259 0.0 0.0 0.00 0.00 0.00 72 1011.5
20260507234519 71 262 0.0 0.0 0.00 0.00 0.00 71 1011.5
20260507233030 70 246 0.0 0.0 0.00 0.00 0.00 72 1011.4
20260507231517 71 240 0.0 0.0 0.00 0.00 0.00 71 1011.5
20260507230015 71 268 0.0 0.0 0.00 0.00 0.00 71 1011.6
20260507224515 71 279 0.9 0.0 0.00 0.00 0.00 71 1011.6
20260507223014 71 271 0.0 0.0 0.00 0.00 0.00 71 1011.7
20260507221544 72 242 0.0 0.0 0.00 0.00 0.00 70 1011.8
20260507220043 72 259 0.9 0.0 0.00 0.00 0.00 70 1011.9
20260507214537 71 217 0.0 0.0 0.00 0.00 0.00 70 1012.2
20260507213040 72 250 0.9 0.0 0.00 0.00 0.00 71 1012.2